EN

Hourly Weather Boevaya Gora

Today, 1 October, Thursday

Time Temperature Precipitation Wind Pressure Humidity
00:00 +13°C° 0 mm 2 mps 760 mmHg 62%
01:00 +13°C° 0 mm 2 mps 760 mmHg 71%
02:00 +12°C° 0 mm 2 mps 760 mmHg 74%
03:00 +11°C° 0 mm 3 mps 760 mmHg 76%
04:00 +12°C° 0 mm 2 mps 760 mmHg 74%
05:00 +10°C° 0 mm 2 mps 760 mmHg 75%
06:00 +10°C° 0 mm 2 mps 760 mmHg 75%
07:00 +10°C° 0 mm 3 mps 760 mmHg 76%
08:00 +12°C° 0 mm 3 mps 760 mmHg 69%
09:00 +13°C° 0 mm 3 mps 760 mmHg 62%
10:00 +16°C° 0 mm 3 mps 760 mmHg 55%
11:00 +17°C° 0 mm 3 mps 760 mmHg 51%
12:00 +18°C° 0 mm 3 mps 760 mmHg 48%
13:00 +19°C° 0 mm 3 mps 760 mmHg 45%
14:00 +19°C° 0 mm 3 mps 760 mmHg 43%
15:00 +19°C° 0 mm 3 mps 759 mmHg 42%
16:00 +19°C° 0 mm 3 mps 759 mmHg 39%
17:00 +18°C° 0 mm 3 mps 759 mmHg 43%
18:00 +16°C° 0 mm 2 mps 759 mmHg 46%
19:00 +15°C° 0 mm 2 mps 759 mmHg 50%
20:00 +14°C° 0 mm 2 mps 759 mmHg 50%
21:00 +14°C° 0 mm 2 mps 759 mmHg 51%
22:00 +13°C° 0 mm 2 mps 759 mmHg 51%
23:00 +13°C° 0 mm 2 mps 759 mmHg 50%

Tomorrow, 2 October, Friday

Time Temperature Precipitation Wind Pressure Humidity
00:00 +12°C° 0 mm 2 mps 759 mmHg 49%
01:00 +12°C° 0 mm 2 mps 759 mmHg 48%
02:00 +10°C° 0 mm 2 mps 759 mmHg 49%
03:00 +10°C° 0 mm 2 mps 759 mmHg 49%
04:00 +10°C° 0 mm 2 mps 760 mmHg 49%
05:00 +9°C° 0 mm 2 mps 760 mmHg 51%
06:00 +9°C° 0 mm 2 mps 760 mmHg 53%
07:00 +9°C° 0 mm 2 mps 760 mmHg 54%
08:00 +11°C° 0 mm 3 mps 760 mmHg 50%
09:00 +13°C° 0 mm 3 mps 760 mmHg 45%
10:00 +16°C° 0 mm 3 mps 760 mmHg 40%
11:00 +16°C° 0 mm 3 mps 760 mmHg 38%
12:00 +17°C° 0 mm 3 mps 759 mmHg 35%
13:00 +18°C° 0 mm 2 mps 759 mmHg 33%
14:00 +18°C° 0 mm 2 mps 759 mmHg 32%
15:00 +18°C° 0 mm 2 mps 759 mmHg 32%
16:00 +19°C° 0 mm 2 mps 759 mmHg 32%
17:00 +17°C° 0 mm 2 mps 759 mmHg 36%
18:00 +16°C° 0 mm 2 mps 759 mmHg 40%
19:00 +14°C° 0 mm 2 mps 759 mmHg 44%
20:00 +13°C° 0 mm 2 mps 759 mmHg 46%
21:00 +13°C° 0 mm 1 mps 759 mmHg 47%
22:00 +12°C° 0 mm 1 mps 759 mmHg 48%
23:00 +12°C° 0 mm 1 mps 759 mmHg 49%

Day after tomorrow, 3 October, Saturday

Time Temperature Precipitation Wind Pressure Humidity
00:00 +12°C° 0 mm 1 mps 758 mmHg 50%
01:00 +10°C° 0 mm 0 mps 758 mmHg 51%
02:00 +10°C° 0 mm 0 mps 758 mmHg 52%
03:00 +9°C° 0 mm 0 mps 758 mmHg 54%
04:00 +9°C° 0 mm 0 mps 759 mmHg 55%
05:00 +9°C° 0 mm 0 mps 758 mmHg 56%
06:00 +10°C° 0 mm 1 mps 758 mmHg 57%
07:00 +10°C° 0 mm 1 mps 758 mmHg 58%
08:00 +12°C° 0 mm 1 mps 758 mmHg 54%
09:00 +14°C° 0 mm 1 mps 758 mmHg 49%
10:00 +16°C° 0 mm 2 mps 758 mmHg 45%
11:00 +17°C° 0 mm 2 mps 758 mmHg 44%
12:00 +18°C° 0 mm 2 mps 758 mmHg 44%
13:00 +19°C° 0 mm 3 mps 757 mmHg 44%
14:00 +19°C° 0 mm 3 mps 757 mmHg 43%
15:00 +19°C° 0 mm 3 mps 757 mmHg 42%
16:00 +19°C° 0 mm 3 mps 757 mmHg 42%
17:00 +18°C° 0 mm 3 mps 757 mmHg 48%
18:00 +16°C° 0 mm 3 mps 757 mmHg 53%
19:00 +14°C° 0 mm 3 mps 757 mmHg 59%
20:00 +14°C° 0 mm 2 mps 757 mmHg 64%
21:00 +13°C° 0 mm 2 mps 757 mmHg 68%
22:00 +13°C° 0 mm 1 mps 757 mmHg 73%
23:00 +12°C° 0 mm 2 mps 757 mmHg 74%

4 October, Sunday

Time Temperature Precipitation Wind Pressure Humidity
00:00 +12°C° 0 mm 2 mps 757 mmHg 75%
01:00 +12°C° 0 mm 2 mps 757 mmHg 76%
02:00 +10°C° 0 mm 2 mps 757 mmHg 79%
03:00 +10°C° 0 mm 2 mps 757 mmHg 81%
04:00 +10°C° 0 mm 2 mps 757 mmHg 84%
05:00 +9°C° 0 mm 2 mps 757 mmHg 86%
06:00 +9°C° 0 mm 2 mps 757 mmHg 88%
07:00 +9°C° 0 mm 3 mps 758 mmHg 90%
08:00 +10°C° 0 mm 3 mps 758 mmHg 81%
09:00 +12°C° 0 mm 4 mps 758 mmHg 72%
10:00 +13°C° 0 mm 5 mps 758 mmHg 63%
11:00 +14°C° 0 mm 5 mps 758 mmHg 57%
12:00 +15°C° 0 mm 5 mps 758 mmHg 51%
13:00 +15°C° 0 mm 5 mps 758 mmHg 45%
14:00 +15°C° 0 mm 5 mps 758 mmHg 44%
15:00 +15°C° 0 mm 5 mps 758 mmHg 43%
16:00 +14°C° 0 mm 5 mps 758 mmHg 42%
17:00 +13°C° 0 mm 4 mps 758 mmHg 44%
18:00 +12°C° 0 mm 4 mps 758 mmHg 46%
19:00 +10°C° 0 mm 4 mps 758 mmHg 48%
20:00 +9°C° 0 mm 3 mps 759 mmHg 54%
21:00 +9°C° 0 mm 3 mps 759 mmHg 60%
22:00 +8°C° 0 mm 3 mps 759 mmHg 66%
23:00 +8°C° 0 mm 3 mps 760 mmHg 64%

5 October, Monday

Time Temperature Precipitation Wind Pressure Humidity
00:00 +7°C° 0 mm 4 mps 760 mmHg 62%
01:00 +7°C° 0 mm 4 mps 760 mmHg 60%
02:00 +6°C° 0 mm 4 mps 760 mmHg 59%
03:00 +5°C° 0 mm 4 mps 761 mmHg 58%
04:00 +5°C° 0 mm 4 mps 761 mmHg 57%
05:00 +4°C° 0 mm 4 mps 761 mmHg 58%
06:00 +4°C° 0 mm 4 mps 762 mmHg 60%
07:00 +3°C° 0 mm 4 mps 762 mmHg 62%
08:00 +5°C° 0 mm 4 mps 762 mmHg 55%
09:00 +6°C° 0 mm 4 mps 762 mmHg 48%
10:00 +7°C° 0 mm 4 mps 762 mmHg 41%
11:00 +8°C° 0 mm 4 mps 762 mmHg 37%
12:00 +10°C° 0 mm 4 mps 763 mmHg 33%
13:00 +11°C° 0 mm 4 mps 763 mmHg 29%
14:00 +11°C° 0 mm 3 mps 762 mmHg 27%
15:00 +11°C° 0 mm 3 mps 762 mmHg 26%
16:00 +11°C° 0 mm 3 mps 762 mmHg 25%
17:00 +10°C° 0 mm 2 mps 762 mmHg 27%
18:00 +9°C° 0 mm 2 mps 762 mmHg 30%
19:00 +7°C° 0 mm 2 mps 762 mmHg 33%
20:00 +7°C° 0 mm 2 mps 762 mmHg 33%
21:00 +7°C° 0 mm 1 mps 762 mmHg 34%
22:00 +7°C° 0 mm 1 mps 762 mmHg 35%
23:00 +7°C° 0 mm 1 mps 762 mmHg 36%

6 October, Tuesday

Time Temperature Precipitation Wind Pressure Humidity
00:00 +6°C° 0 mm 1 mps 762 mmHg 36%
01:00 +6°C° 0 mm 1 mps 762 mmHg 37%
02:00 +5°C° 0 mm 1 mps 762 mmHg 38%
03:00 +5°C° 0 mm 1 mps 762 mmHg 38%
04:00 +5°C° 0 mm 1 mps 762 mmHg 39%
05:00 +5°C° 0 mm 1 mps 762 mmHg 39%
06:00 +5°C° 0 mm 1 mps 762 mmHg 39%
07:00 +5°C° 0 mm 1 mps 762 mmHg 39%
08:00 +7°C° 0 mm 1 mps 762 mmHg 35%
09:00 +8°C° 0 mm 1 mps 762 mmHg 31%
10:00 +9°C° 0 mm 2 mps 761 mmHg 27%
11:00 +10°C° 0 mm 2 mps 761 mmHg 25%
12:00 +12°C° 0 mm 2 mps 761 mmHg 24%
13:00 +12°C° 0 mm 3 mps 761 mmHg 22%
14:00 +12°C° 0 mm 3 mps 760 mmHg 23%
15:00 +12°C° 0 mm 3 mps 760 mmHg 23%
16:00 +12°C° 0 mm 3 mps 760 mmHg 24%
17:00 +11°C° 0 mm 3 mps 759 mmHg 27%
18:00 +10°C° 0 mm 2 mps 759 mmHg 30%
19:00 +9°C° 0 mm 2 mps 759 mmHg 33%
20:00 +8°C° 0 mm 2 mps 758 mmHg 34%
21:00 +8°C° 0 mm 2 mps 758 mmHg 36%
22:00 +8°C° 0 mm 2 mps 758 mmHg 38%
23:00 +8°C° 0 mm 2 mps 758 mmHg 38%
Show more

We Need Your Consent

Meteoprog and our Service Providers may store and access personal data such as cookies, device identifiers or other similar technologies on your device and process such data to personalise content and ads, as well as provide social media features and to analyse the traffic.

  • Store and/or access information on your device

    Cookies, device identifiers or other information can be stored or accessed on your device for the purposes indicated above.

  • Personalised ads and content, ad and content measurement, audience insights, and products development

    Ads and content can be personalised based on a profile. More data can be added to better personalise ads and content. Ad and content performance can be measured. Insights about the audience who saw the ads and content can be derived. Such data can be used to develop or improve user’s experience, systems and software.

By clicking ‘I Agree’ you will allow the use of indicated cookies, device identifiers, web beacons or other similar technologies. Your settings can be changed in the browser on your device.

For certain purposes, legitimate interests may be relied on, rather than consent. You can read more about this in our Privacy and Cookie Policy.